| time (UTC) | temp C | wind direction | speed KPH | gust KPH | rain 1hr cm | rain 24hr cm | rain mn cm | humidity % | barometer mb |
| 20260508233232 | 23 | 220 | 8.0 | 11.3 | 0.00 | 0.00 | 0.00 | 36 | 1004.7 |
| 20260508232729 | 23 | 255 | 6.4 | 11.3 | 0.00 | 0.00 | 0.00 | 34 | 1004.7 |
| 20260508232226 | 23 | 206 | 6.4 | 11.3 | 0.00 | 0.00 | 0.00 | 35 | 1004.9 |
| 20260508231724 | 22 | 261 | 4.8 | 11.3 | 0.00 | 0.00 | 0.00 | 33 | 1005.0 |
| 20260508231220 | 22 | 251 | 3.2 | 8.0 | 0.00 | 0.00 | 0.00 | 37 | 1004.8 |
| 20260508230717 | 22 | 242 | 6.4 | 11.3 | 0.00 | 0.00 | 0.00 | 38 | 1005.0 |
| 20260508230213 | 23 | 230 | 4.8 | 11.3 | 0.00 | 0.00 | 0.00 | 36 | 1004.8 |
| 20260508225712 | 22 | 235 | 6.4 | 14.5 | 0.00 | 0.00 | 0.00 | 35 | 1005.0 |
| 20260508225207 | 23 | 206 | 9.7 | 14.5 | 0.00 | 0.00 | 0.00 | 35 | 1005.0 |
| 20260508224706 | 23 | 269 | 3.2 | 8.0 | 0.00 | 0.00 | 0.00 | 37 | 1005.1 |
| 20260508224203 | 23 | 175 | 8.0 | 11.3 | 0.00 | 0.00 | 0.00 | 37 | 1005.2 |
| 20260508223700 | 23 | 216 | 4.8 | 14.5 | 0.00 | 0.00 | 0.00 | 37 | 1005.1 |
| 20260508223157 | 22 | 221 | 6.4 | 11.3 | 0.00 | 0.00 | 0.00 | 37 | 1005.1 |
| 20260508222655 | 22 | 214 | 8.0 | 11.3 | 0.00 | 0.00 | 0.00 | 36 | 1005.2 |
| 20260508222152 | 23 | 213 | 8.0 | 12.9 | 0.00 | 0.00 | 0.00 | 37 | 1005.1 |
| 20260508221648 | 22 | 217 | 6.4 | 11.3 | 0.00 | 0.00 | 0.00 | 36 | 1005.2 |
| 20260508221144 | 23 | 232 | 6.4 | 9.7 | 0.00 | 0.00 | 0.00 | 36 | 1005.3 |
| 20260508220641 | 23 | 259 | 3.2 | 11.3 | 0.00 | 0.00 | 0.00 | 36 | 1005.3 |
| 20260508220137 | 22 | 228 | 8.0 | 11.3 | 0.00 | 0.00 | 0.00 | 34 | 1005.2 |
| 20260508215634 | 23 | 206 | 12.9 | 14.5 | 0.00 | 0.00 | 0.00 | 33 | 1005.3 |
| 20260508215131 | 23 | 208 | 9.7 | 14.5 | 0.00 | 0.00 | 0.00 | 36 | 1005.5 |
| 20260508214628 | 22 | 245 | 6.4 | 11.3 | 0.00 | 0.00 | 0.00 | 35 | 1005.4 |
| 20260508214125 | 23 | 220 | 8.0 | 9.7 | 0.00 | 0.00 | 0.00 | 35 | 1005.5 |
| 20260508213622 | 23 | 220 | 9.7 | 16.1 | 0.00 | 0.00 | 0.00 | 34 | 1005.6 |
| 20260508213117 | 23 | 224 | 8.0 | 14.5 | 0.00 | 0.00 | 0.00 | 35 | 1005.5 |
| 20260508212614 | 23 | 222 | 8.0 | 11.3 | 0.00 | 0.00 | 0.00 | 33 | 1005.7 |
| 20260508212111 | 23 | 222 | 8.0 | 11.3 | 0.00 | 0.00 | 0.00 | 33 | 1005.7 |
| 20260508211606 | 23 | 274 | 4.8 | 8.0 | 0.00 | 0.00 | 0.00 | 32 | 1005.8 |
| 20260508211103 | 23 | 321 | 0.0 | 9.7 | 0.00 | 0.00 | 0.00 | 32 | 1005.7 |
| 20260508210559 | 23 | 196 | 3.2 | 4.8 | 0.00 | 0.00 | 0.00 | 28 | 1005.7 |
| 20260508210057 | 22 | 285 | 0.0 | 1.6 | 0.00 | 0.00 | 0.00 | 29 | 1005.7 |
| 20260508205554 | 22 | 280 | 4.8 | 4.8 | 0.00 | 0.00 | 0.00 | 28 | 1005.9 |
| 20260508205050 | 23 | 290 | 11.3 | 12.9 | 0.00 | 0.00 | 0.00 | 28 | 1005.9 |
| 20260508204547 | 23 | 303 | 4.8 | 14.5 | 0.00 | 0.00 | 0.00 | 28 | 1006.0 |
| 20260508204042 | 24 | 313 | 6.4 | 14.5 | 0.00 | 0.00 | 0.00 | 27 | 1006.1 |
| 20260508203539 | 24 | 354 | 3.2 | 3.2 | 0.00 | 0.00 | 0.00 | 28 | 1006.0 |
| 20260508203035 | 23 | 280 | 3.2 | 8.0 | 0.00 | 0.00 | 0.00 | 29 | 1006.2 |
| 20260508202532 | 23 | 249 | 6.4 | 14.5 | 0.00 | 0.00 | 0.00 | 27 | 1006.2 |
| 20260508202029 | 24 | 252 | 6.4 | 9.7 | 0.00 | 0.00 | 0.00 | 27 | 1006.6 |
| 20260508201525 | 24 | 281 | 1.6 | 4.8 | 0.00 | 0.00 | 0.00 | 31 | 1006.4 |
| 20260508201022 | 23 | 257 | 3.2 | 12.9 | 0.00 | 0.00 | 0.00 | 30 | 1006.6 |
| 20260508200519 | 23 | 259 | 1.6 | 11.3 | 0.00 | 0.00 | 0.00 | 29 | 1006.6 |
| 20260508200015 | 22 | 40 | 4.8 | 9.7 | 0.00 | 0.00 | 0.00 | 29 | 1006.4 |
| 20260508195512 | 23 | 14 | 3.2 | 8.0 | 0.00 | 0.00 | 0.00 | 30 | 1006.6 |
| 20260508195008 | 25 | 280 | 3.2 | 11.3 | 0.00 | 0.00 | 0.00 | 28 | 1006.7 |
| 20260508194505 | 23 | 270 | 1.6 | 3.2 | 0.00 | 0.00 | 0.00 | 30 | 1006.7 |
| 20260508194002 | 23 | 269 | 1.6 | 4.8 | 0.00 | 0.00 | 0.00 | 29 | 1006.9 |
| 20260508193459 | 22 | 290 | 3.2 | 11.3 | 0.00 | 0.00 | 0.00 | 28 | 1007.0 |
| 20260508192955 | 22 | 297 | 4.8 | 8.0 | 0.00 | 0.00 | 0.00 | 30 | 1007.0 |
| 20260508192452 | 22 | 333 | 9.7 | 22.5 | 0.00 | 0.00 | 0.00 | 30 | 1007.1 |
| 20260508191949 | 23 | 11 | 4.8 | 8.0 | 0.00 | 0.00 | 0.00 | 30 | 1007.1 |
| 20260508191446 | 22 | 285 | 4.8 | 9.7 | 0.00 | 0.00 | 0.00 | 29 | 1007.1 |
| 20260508190942 | 22 | 256 | 6.4 | 9.7 | 0.00 | 0.00 | 0.00 | 30 | 1007.2 |
| 20260508190440 | 22 | 230 | 6.4 | 12.9 | 0.00 | 0.00 | 0.00 | 30 | 1007.3 |
| 20260508185936 | 22 | 210 | 6.4 | 8.0 | 0.00 | 0.00 | 0.00 | 30 | 1007.2 |
| 20260508185434 | 22 | 29 | 3.2 | 3.2 | 0.00 | 0.00 | 0.00 | 28 | 1007.4 |
| 20260508184931 | 22 | 295 | 6.4 | 9.7 | 0.00 | 0.00 | 0.00 | 29 | 1007.3 |
| 20260508184428 | 22 | 305 | 6.4 | 11.3 | 0.00 | 0.00 | 0.00 | 29 | 1007.6 |
| 20260508183924 | 22 | 345 | 4.8 | 4.8 | 0.00 | 0.00 | 0.00 | 29 | 1007.7 |
| 20260508183421 | 22 | 329 | 3.2 | 8.0 | 0.00 | 0.00 | 0.00 | 31 | 1007.6 |
| 20260508182916 | 22 | 293 | 4.8 | 8.0 | 0.00 | 0.00 | 0.00 | 29 | 1007.7 |
| 20260508182414 | 21 | 8 | 9.7 | 14.5 | 0.00 | 0.00 | 0.00 | 30 | 1007.7 |
| 20260508181909 | 22 | 318 | 4.8 | 11.3 | 0.00 | 0.00 | 0.00 | 31 | 1007.7 |
| 20260508181406 | 22 | 255 | 1.6 | 8.0 | 0.00 | 0.00 | 0.00 | 30 | 1007.7 |
| 20260508180903 | 21 | 238 | 3.2 | 3.2 | 0.00 | 0.00 | 0.00 | 32 | 1007.7 |
| 20260508180400 | 22 | 322 | 4.8 | 9.7 | 0.00 | 0.00 | 0.00 | 31 | 1007.9 |
| 20260508175856 | 21 | 359 | 9.7 | 9.7 | 0.00 | 0.00 | 0.00 | 30 | 1007.8 |
| 20260508175353 | 21 | 4 | 4.8 | 12.9 | 0.00 | 0.00 | 0.00 | 31 | 1007.9 |
| 20260508174851 | 22 | 277 | 1.6 | 3.2 | 0.00 | 0.00 | 0.00 | 28 | 1007.9 |
| 20260508174348 | 22 | 226 | 4.8 | 4.8 | 0.00 | 0.00 | 0.00 | 35 | 1007.8 |
| 20260508173839 | 21 | 259 | 1.6 | 4.8 | 0.00 | 0.00 | 0.00 | 31 | 1007.9 |
| 20260508173337 | 21 | 355 | 4.8 | 11.3 | 0.00 | 0.00 | 0.00 | 30 | 1008.1 |
| 20260508172832 | 21 | 358 | 4.8 | 11.3 | 0.00 | 0.00 | 0.00 | 33 | 1008.1 |
| 20260508172330 | 21 | 282 | 0.0 | 4.8 | 0.00 | 0.00 | 0.00 | 34 | 1008.1 |
| 20260508171826 | 21 | 319 | 0.0 | 1.6 | 0.00 | 0.00 | 0.00 | 31 | 1008.3 |
| 20260508171322 | 21 | 343 | 6.4 | 9.7 | 0.00 | 0.00 | 0.00 | 33 | 1008.5 |
| 20260508170819 | 22 | 285 | 1.6 | 4.8 | 0.00 | 0.00 | 0.00 | 35 | 1008.4 |
| 20260508170317 | 22 | 293 | 0.0 | 1.6 | 0.00 | 0.00 | 0.00 | 36 | 1008.5 |
| 20260508165814 | 21 | 301 | 0.0 | 4.8 | 0.00 | 0.00 | 0.00 | 34 | 1008.6 |
| 20260508165311 | 21 | 303 | 3.2 | 8.0 | 0.00 | 0.00 | 0.00 | 36 | 1008.4 |
| 20260508164807 | 21 | 290 | 0.0 | 1.6 | 0.00 | 0.00 | 0.00 | 33 | 1008.5 |
| 20260508164304 | 21 | 253 | 3.2 | 3.2 | 0.00 | 0.00 | 0.00 | 34 | 1008.4 |
| 20260508163802 | 20 | 252 | 1.6 | 4.8 | 0.00 | 0.00 | 0.00 | 34 | 1008.6 |
| 20260508163259 | 20 | 329 | 0.0 | 4.8 | 0.00 | 0.00 | 0.00 | 41 | 1008.7 |
| 20260508162755 | 20 | 263 | 4.8 | 9.7 | 0.00 | 0.00 | 0.00 | 39 | 1008.5 |
| 20260508162252 | 20 | 239 | 1.6 | 4.8 | 0.00 | 0.00 | 0.00 | 46 | 1008.7 |
| 20260508161749 | 20 | 144 | 4.8 | 11.3 | 0.00 | 0.00 | 0.00 | 46 | 1008.9 |
| 20260508161246 | 20 | 217 | 6.4 | 9.7 | 0.00 | 0.00 | 0.00 | 47 | 1008.8 |
| 20260508160744 | 18 | 138 | 6.4 | 9.7 | 0.00 | 0.00 | 0.00 | 49 | 1008.8 |
| 20260508160242 | 19 | 262 | 3.2 | 4.8 | 0.00 | 0.00 | 0.00 | 50 | 1008.9 |
| 20260508155738 | 18 | 261 | 0.0 | 4.8 | 0.00 | 0.00 | 0.00 | 49 | 1009.1 |
| 20260508155235 | 19 | 169 | 3.2 | 8.0 | 0.00 | 0.00 | 0.00 | 50 | 1009.1 |
| 20260508154726 | 18 | 215 | 3.2 | 4.8 | 0.00 | 0.00 | 0.00 | 54 | 1008.9 |
| 20260508154224 | 18 | 228 | 3.2 | 4.8 | 0.00 | 0.00 | 0.00 | 54 | 1008.9 |
| 20260508153720 | 18 | 232 | 1.6 | 4.8 | 0.00 | 0.00 | 0.00 | 57 | 1009.0 |
| 20260508153217 | 18 | 184 | 4.8 | 4.8 | 0.00 | 0.00 | 0.00 | 55 | 1009.0 |
| 20260508152714 | 17 | 217 | 0.0 | 3.2 | 0.00 | 0.00 | 0.00 | 58 | 1009.1 |
| 20260508152209 | 17 | 169 | 3.2 | 4.8 | 0.00 | 0.00 | 0.00 | 59 | 1009.0 |
| 20260508151706 | 17 | 236 | 3.2 | 3.2 | 0.00 | 0.00 | 0.00 | 60 | 1009.3 |
| 20260508151203 | 17 | 207 | 4.8 | 8.0 | 0.00 | 0.00 | 0.00 | 59 | 1009.1 |
| 20260508150700 | 17 | 296 | 0.0 | 1.6 | 0.00 | 0.00 | 0.00 | 59 | 1009.2 |
| 20260508150157 | 16 | 92 | 1.6 | 4.8 | 0.00 | 0.00 | 0.00 | 61 | 1009.3 |
| 20260508145652 | 16 | 246 | 1.6 | 4.8 | 0.00 | 0.00 | 0.00 | 61 | 1009.4 |
| 20260508145149 | 16 | 206 | 3.2 | 3.2 | 0.00 | 0.00 | 0.00 | 62 | 1009.3 |
| 20260508144646 | 15 | 345 | 1.6 | 3.2 | 0.00 | 0.00 | 0.00 | 65 | 1009.3 |
| 20260508144144 | 14 | 177 | 4.8 | 8.0 | 0.00 | 0.00 | 0.00 | 67 | 1009.4 |
| 20260508143641 | 13 | 208 | 1.6 | 4.8 | 0.00 | 0.00 | 0.00 | 67 | 1009.4 |
| 20260508143138 | 13 | 225 | 4.8 | 9.7 | 0.00 | 0.00 | 0.00 | 68 | 1009.5 |
| 20260508142634 | 12 | 242 | 1.6 | 3.2 | 0.00 | 0.00 | 0.00 | 70 | 1009.3 |
| 20260508142131 | 12 | 243 | 3.2 | 4.8 | 0.00 | 0.00 | 0.00 | 70 | 1009.5 |
| 20260508141628 | 12 | 213 | 3.2 | 4.8 | 0.00 | 0.00 | 0.00 | 71 | 1009.6 |
| 20260508141125 | 12 | 210 | 3.2 | 4.8 | 0.00 | 0.00 | 0.00 | 71 | 1009.7 |
| 20260508140623 | 11 | 222 | 4.8 | 8.0 | 0.00 | 0.00 | 0.00 | 70 | 1009.7 |
| 20260508140119 | 11 | 243 | 3.2 | 8.0 | 0.00 | 0.00 | 0.00 | 73 | 1009.6 |
| 20260508135614 | 11 | 247 | 3.2 | 3.2 | 0.00 | 0.00 | 0.00 | 71 | 1009.6 |
| 20260508135111 | 11 | 252 | 1.6 | 1.6 | 0.00 | 0.00 | 0.00 | 71 | 1009.5 |
| 20260508134608 | 11 | 253 | 0.0 | 3.2 | 0.00 | 0.00 | 0.00 | 72 | 1009.5 |
| 20260508134105 | 11 | 254 | 0.0 | 1.6 | 0.00 | 0.00 | 0.00 | 73 | 1009.5 |
| 20260508133601 | 10 | 253 | 0.0 | 3.2 | 0.00 | 0.00 | 0.00 | 72 | 1009.5 |
| 20260508133058 | 10 | 253 | 1.6 | 1.6 | 0.00 | 0.00 | 0.00 | 73 | 1009.8 |
| 20260508132551 | 10 | 244 | 3.2 | 4.8 | 0.00 | 0.00 | 0.00 | 72 | 1009.6 |
| 20260508132047 | 10 | 258 | 0.0 | 3.2 | 0.00 | 0.00 | 0.00 | 71 | 1009.7 |
| 20260508131542 | 10 | 227 | 3.2 | 3.2 | 0.00 | 0.00 | 0.00 | 70 | 1009.5 |
| 20260508131040 | 10 | 235 | 1.6 | 3.2 | 0.00 | 0.00 | 0.00 | 69 | 1009.4 |
| 20260508130537 | 10 | 196 | 1.6 | 4.8 | 0.00 | 0.00 | 0.00 | 69 | 1009.2 |
| 20260508130033 | 10 | 162 | 4.8 | 8.0 | 0.00 | 0.00 | 0.00 | 68 | 1009.1 |
| 20260508125529 | 10 | 299 | 1.6 | 3.2 | 0.00 | 0.00 | 0.00 | 68 | 1008.9 |
| 20260508125027 | 10 | 355 | 0.0 | 0.0 | 0.00 | 0.00 | 0.00 | 69 | 1008.9 |
| 20260508124524 | 10 | 14 | 0.0 | 1.6 | 0.00 | 0.00 | 0.00 | 72 | 1008.9 |
| 20260508124021 | 9 | 40 | 0.0 | 1.6 | 0.00 | 0.00 | 0.00 | 71 | 1008.8 |
| 20260508123520 | 8 | 39 | 0.0 | 1.6 | 0.00 | 0.00 | 0.00 | 75 | 1008.7 |
| 20260508123016 | 8 | 250 | 0.0 | 0.0 | 0.00 | 0.00 | 0.00 | 76 | 1009.0 |
| 20260508122513 | 8 | 250 | 0.0 | 1.6 | 0.00 | 0.00 | 0.00 | 75 | 1009.1 |
| 20260508122010 | 8 | 224 | 1.6 | 3.2 | 0.00 | 0.00 | 0.00 | 74 | 1008.9 |
| 20260508121508 | 8 | 205 | 3.2 | 3.2 | 0.00 | 0.00 | 0.00 | 73 | 1008.9 |
| 20260508121006 | 8 | 215 | 1.6 | 4.8 | 0.00 | 0.00 | 0.00 | 73 | 1008.7 |
| 20260508120503 | 8 | 241 | 1.6 | 4.8 | 0.00 | 0.00 | 0.00 | 75 | 1008.8 |
| 20260508120001 | 8 | 206 | 6.4 | 11.3 | 0.00 | 0.00 | 0.00 | 75 | 1008.7 |
| 20260508115458 | 9 | 212 | 8.0 | 11.3 | 0.00 | 0.00 | 0.00 | 71 | 1008.8 |
| 20260508114955 | 9 | 13 | 3.2 | 3.2 | 0.00 | 0.00 | 0.00 | 69 | 1008.7 |
| 20260508114452 | 9 | 17 | 4.8 | 4.8 | 0.00 | 0.00 | 0.00 | 68 | 1008.5 |
| 20260508113948 | 9 | 13 | 1.6 | 1.6 | 0.00 | 0.00 | 0.00 | 68 | 1008.8 |
| 20260508113446 | 9 | 13 | 0.0 | 0.0 | 0.00 | 0.00 | 0.00 | 69 | 1009.0 |
| 20260508112943 | 9 | 14 | 0.0 | 1.6 | 0.00 | 0.00 | 0.00 | 64 | 1009.0 |
| 20260508112439 | 9 | 13 | 0.0 | 1.6 | 0.00 | 0.00 | 0.00 | 65 | 1008.9 |
| 20260508111936 | 9 | 13 | 0.0 | 1.6 | 0.00 | 0.00 | 0.00 | 66 | 1009.0 |
| 20260508111433 | 8 | 13 | 0.0 | 1.6 | 0.00 | 0.00 | 0.00 | 63 | 1009.1 |
| 20260508110930 | 8 | 14 | 0.0 | 1.6 | 0.00 | 0.00 | 0.00 | 68 | 1009.0 |
| 20260508110428 | 8 | 14 | 0.0 | 1.6 | 0.00 | 0.00 | 0.00 | 66 | 1009.1 |
| 20260508105928 | 8 | 13 | 1.6 | 3.2 | 0.00 | 0.00 | 0.00 | 65 | 1008.8 |
| 20260508105424 | 8 | 13 | 0.0 | 1.6 | 0.00 | 0.00 | 0.00 | 66 | 1009.2 |
| 20260508104922 | 8 | 13 | 0.0 | 0.0 | 0.00 | 0.00 | 0.00 | 71 | 1009.0 |
| 20260508104419 | 8 | 13 | 0.0 | 0.0 | 0.00 | 0.00 | 0.00 | 70 | 1009.2 |
| 20260508103916 | 8 | 13 | 0.0 | 0.0 | 0.00 | 0.00 | 0.00 | 68 | 1009.4 |
| 20260508103413 | 7 | 12 | 0.0 | 1.6 | 0.00 | 0.00 | 0.00 | 71 | 1009.3 |
| 20260508102910 | 6 | 13 | 1.6 | 1.6 | 0.00 | 0.00 | 0.00 | 75 | 1009.4 |
| 20260508102408 | 6 | 13 | 0.0 | 0.0 | 0.00 | 0.00 | 0.00 | 83 | 1009.1 |
| 20260508101905 | 6 | 13 | 0.0 | 0.0 | 0.00 | 0.00 | 0.00 | 78 | 1009.1 |
| 20260508101402 | 7 | 13 | 0.0 | 0.0 | 0.00 | 0.00 | 0.00 | 76 | 1009.2 |
| 20260508100859 | 7 | 13 | 0.0 | 0.0 | 0.00 | 0.00 | 0.00 | 75 | 1009.2 |
| 20260508100359 | 6 | 13 | 0.0 | 1.6 | 0.00 | 0.00 | 0.00 | 75 | 1009.4 |
| 20260508095853 | 6 | 13 | 0.0 | 0.0 | 0.00 | 0.00 | 0.00 | 80 | 1009.4 |
| 20260508095352 | 6 | 13 | 0.0 | 0.0 | 0.00 | 0.00 | 0.00 | 79 | 1009.5 |
| 20260508094848 | 7 | 13 | 0.0 | 0.0 | 0.00 | 0.00 | 0.00 | 76 | 1009.4 |
| 20260508094345 | 7 | 13 | 0.0 | 0.0 | 0.00 | 0.00 | 0.00 | 76 | 1009.6 |
| 20260508093842 | 7 | 13 | 0.0 | 1.6 | 0.00 | 0.00 | 0.00 | 78 | 1009.5 |
| 20260508093339 | 7 | 13 | 0.0 | 0.0 | 0.00 | 0.00 | 0.00 | 76 | 1009.6 |
| 20260508092837 | 6 | 13 | 0.0 | 0.0 | 0.00 | 0.00 | 0.00 | 79 | 1009.3 |
| 20260508092335 | 6 | 13 | 0.0 | 0.0 | 0.00 | 0.00 | 0.00 | 80 | 1009.3 |
| 20260508091833 | 6 | 13 | 0.0 | 0.0 | 0.00 | 0.00 | 0.00 | 81 | 1009.1 |
| 20260508091329 | 7 | 13 | 0.0 | 0.0 | 0.00 | 0.00 | 0.00 | 81 | 1009.4 |
| 20260508090827 | 7 | 13 | 0.0 | 1.6 | 0.00 | 0.00 | 0.00 | 80 | 1009.2 |
| 20260508090325 | 7 | 13 | 0.0 | 0.0 | 0.00 | 0.00 | 0.00 | 80 | 1009.7 |
| 20260508085820 | 7 | 13 | 0.0 | 0.0 | 0.00 | 0.00 | 0.00 | 79 | 1009.5 |
| 20260508085318 | 7 | 13 | 0.0 | 1.6 | 0.00 | 0.00 | 0.00 | 79 | 1009.6 |
| 20260508084814 | 7 | 13 | 0.0 | 0.0 | 0.00 | 0.00 | 0.00 | 75 | 1009.6 |
| 20260508084311 | 7 | 13 | 0.0 | 0.0 | 0.00 | 0.00 | 0.00 | 72 | 1009.6 |
| 20260508083808 | 8 | 13 | 0.0 | 0.0 | 0.00 | 0.00 | 0.00 | 71 | 1009.4 |
| 20260508083305 | 7 | 13 | 0.0 | 0.0 | 0.00 | 0.00 | 0.00 | 71 | 1009.5 |
| 20260508082800 | 7 | 13 | 0.0 | 0.0 | 0.00 | 0.00 | 0.00 | 74 | 1009.3 |
| 20260508082258 | 7 | 13 | 0.0 | 0.0 | 0.00 | 0.00 | 0.00 | 75 | 1009.1 |
| 20260508081755 | 7 | 13 | 0.0 | 0.0 | 0.00 | 0.00 | 0.00 | 74 | 1009.1 |
| 20260508081251 | 7 | 13 | 0.0 | 0.0 | 0.00 | 0.00 | 0.00 | 74 | 1009.1 |
| 20260508080749 | 7 | 13 | 0.0 | 0.0 | 0.00 | 0.00 | 0.00 | 74 | 1009.2 |
| 20260508080247 | 7 | 13 | 0.0 | 0.0 | 0.00 | 0.00 | 0.00 | 74 | 1009.1 |
| 20260508075743 | 7 | 13 | 0.0 | 1.6 | 0.00 | 0.00 | 0.00 | 76 | 1009.3 |
| 20260508075239 | 7 | 13 | 0.0 | 0.0 | 0.00 | 0.00 | 0.00 | 76 | 1009.2 |
| 20260508074737 | 7 | 13 | 0.0 | 1.6 | 0.00 | 0.00 | 0.00 | 77 | 1009.3 |
| 20260508074235 | 8 | 13 | 0.0 | 1.6 | 0.00 | 0.00 | 0.00 | 77 | 1009.4 |
| 20260508073731 | 8 | 13 | 1.6 | 3.2 | 0.00 | 0.00 | 0.00 | 74 | 1009.4 |
| 20260508073230 | 8 | 13 | 4.8 | 4.8 | 0.00 | 0.00 | 0.00 | 74 | 1009.3 |
| 20260508072725 | 8 | 13 | 1.6 | 3.2 | 0.00 | 0.00 | 0.00 | 77 | 1009.4 |
| 20260508072222 | 7 | 14 | 0.0 | 0.0 | 0.00 | 0.00 | 0.00 | 79 | 1009.3 |
| 20260508071720 | 8 | 14 | 0.0 | 0.0 | 0.00 | 0.00 | 0.00 | 78 | 1009.3 |
| 20260508071218 | 9 | 14 | 0.0 | 3.2 | 0.00 | 0.00 | 0.00 | 75 | 1009.4 |
| 20260508070715 | 8 | 11 | 3.2 | 3.2 | 0.00 | 0.00 | 0.00 | 75 | 1009.6 |
| 20260508070214 | 8 | 12 | 0.0 | 1.6 | 0.00 | 0.00 | 0.00 | 76 | 1009.5 |
| 20260508065710 | 10 | 16 | 1.6 | 3.2 | 0.00 | 0.00 | 0.00 | 74 | 1009.4 |
| 20260508065209 | 9 | 19 | 4.8 | 4.8 | 0.00 | 0.00 | 0.00 | 74 | 1009.4 |
| 20260508064706 | 8 | 352 | 1.6 | 3.2 | 0.00 | 0.00 | 0.00 | 76 | 1009.6 |
| 20260508064204 | 8 | 353 | 1.6 | 1.6 | 0.00 | 0.00 | 0.00 | 78 | 1009.4 |
| 20260508063701 | 9 | 353 | 0.0 | 1.6 | 0.00 | 0.00 | 0.00 | 75 | 1009.7 |
| 20260508063159 | 9 | 352 | 0.0 | 1.6 | 0.00 | 0.00 | 0.00 | 74 | 1009.6 |
| 20260508062656 | 9 | 352 | 0.0 | 1.6 | 0.00 | 0.00 | 0.00 | 74 | 1009.7 |
| 20260508062153 | 10 | 353 | 1.6 | 1.6 | 0.00 | 0.00 | 0.00 | 74 | 1009.8 |
| 20260508061650 | 10 | 358 | 3.2 | 4.8 | 0.00 | 0.00 | 0.00 | 73 | 1009.7 |
| 20260508061148 | 10 | 1 | 1.6 | 3.2 | 0.00 | 0.00 | 0.00 | 73 | 1009.8 |
| 20260508060644 | 10 | 11 | 4.8 | 8.0 | 0.00 | 0.00 | 0.00 | 74 | 1009.7 |
| 20260508060141 | 9 | 2 | 4.8 | 4.8 | 0.00 | 0.00 | 0.00 | 75 | 1009.7 |
| 20260508055637 | 9 | 332 | 0.0 | 3.2 | 0.00 | 0.00 | 0.00 | 77 | 1009.9 |
| 20260508055134 | 9 | 327 | 1.6 | 1.6 | 0.00 | 0.00 | 0.00 | 76 | 1009.7 |
| 20260508054630 | 10 | 342 | 1.6 | 4.8 | 0.00 | 0.00 | 0.00 | 73 | 1009.7 |
| 20260508054128 | 10 | 359 | 1.6 | 4.8 | 0.00 | 0.00 | 0.00 | 73 | 1009.7 |
| 20260508053625 | 10 | 9 | 4.8 | 9.7 | 0.00 | 0.00 | 0.00 | 73 | 1009.7 |
| 20260508053122 | 9 | 331 | 4.8 | 8.0 | 0.00 | 0.00 | 0.00 | 77 | 1009.7 |
| 20260508052620 | 9 | 125 | 1.6 | 1.6 | 0.00 | 0.00 | 0.00 | 75 | 1009.8 |
| 20260508052116 | 10 | 125 | 0.0 | 0.0 | 0.00 | 0.00 | 0.00 | 73 | 1009.5 |
| 20260508051612 | 10 | 125 | 0.0 | 0.0 | 0.00 | 0.00 | 0.00 | 72 | 1009.8 |
| 20260508051108 | 10 | 125 | 0.0 | 1.6 | 0.00 | 0.00 | 0.00 | 71 | 1009.5 |
| 20260508050604 | 10 | 125 | 0.0 | 0.0 | 0.00 | 0.00 | 0.00 | 70 | 1009.7 |
| 20260508045558 | 11 | 125 | 1.6 | 1.6 | 0.00 | 0.00 | 0.00 | 67 | 1009.6 |
| 20260508045056 | 11 | 125 | 0.0 | 1.6 | 0.00 | 0.00 | 0.00 | 67 | 1009.6 |
| 20260508044553 | 11 | 125 | 0.0 | 0.0 | 0.00 | 0.00 | 0.00 | 67 | 1009.5 |
| 20260508044049 | 10 | 125 | 0.0 | 0.0 | 0.00 | 0.00 | 0.00 | 71 | 1009.5 |
| 20260508043545 | 10 | 125 | 0.0 | 0.0 | 0.00 | 0.00 | 0.00 | 71 | 1009.4 |
| 20260508043043 | 10 | 125 | 0.0 | 0.0 | 0.00 | 0.00 | 0.00 | 70 | 1009.6 |
| 20260508042539 | 10 | 125 | 0.0 | 0.0 | 0.00 | 0.00 | 0.00 | 69 | 1009.6 |
| 20260508042037 | 11 | 125 | 0.0 | 0.0 | 0.00 | 0.00 | 0.00 | 67 | 1009.7 |
| 20260508041533 | 11 | 125 | 0.0 | 1.6 | 0.00 | 0.00 | 0.00 | 67 | 1009.6 |
| 20260508041030 | 11 | 125 | 0.0 | 0.0 | 0.00 | 0.00 | 0.00 | 67 | 1009.8 |
| 20260508040527 | 11 | 125 | 0.0 | 1.6 | 0.00 | 0.00 | 0.00 | 66 | 1009.7 |
| 20260508040024 | 11 | 125 | 0.0 | 0.0 | 0.00 | 0.00 | 0.00 | 68 | 1009.7 |
| 20260508035521 | 11 | 125 | 0.0 | 0.0 | 0.00 | 0.00 | 0.00 | 67 | 1009.8 |
| 20260508035018 | 11 | 125 | 0.0 | 0.0 | 0.00 | 0.00 | 0.00 | 65 | 1009.8 |
| 20260508034515 | 11 | 124 | 0.0 | 3.2 | 0.00 | 0.00 | 0.00 | 64 | 1009.9 |
| 20260508034012 | 11 | 20 | 0.0 | 0.0 | 0.00 | 0.00 | 0.00 | 66 | 1009.8 |
| 20260508033510 | 11 | 20 | 0.0 | 0.0 | 0.00 | 0.00 | 0.00 | 66 | 1009.9 |
| 20260508033008 | 11 | 20 | 0.0 | 0.0 | 0.00 | 0.00 | 0.00 | 66 | 1009.7 |
| 20260508032504 | 11 | 20 | 0.0 | 0.0 | 0.00 | 0.00 | 0.00 | 66 | 1009.7 |
| 20260508032002 | 12 | 20 | 0.0 | 0.0 | 0.00 | 0.00 | 0.00 | 65 | 1009.8 |
| 20260508031459 | 12 | 20 | 1.6 | 1.6 | 0.00 | 0.00 | 0.00 | 65 | 1009.7 |
| 20260508030954 | 12 | 20 | 0.0 | 0.0 | 0.00 | 0.00 | 0.00 | 65 | 1009.8 |
| 20260508030451 | 12 | 20 | 0.0 | 0.0 | 0.00 | 0.00 | 0.00 | 63 | 1009.8 |
| 20260508025949 | 12 | 20 | 0.0 | 0.0 | 0.00 | 0.00 | 0.00 | 63 | 1009.6 |
| 20260508025445 | 13 | 20 | 0.0 | 1.6 | 0.00 | 0.00 | 0.00 | 60 | 1009.8 |
| 20260508024943 | 13 | 20 | 0.0 | 1.6 | 0.00 | 0.00 | 0.00 | 60 | 1009.6 |
| 20260508024438 | 13 | 19 | 0.0 | 1.6 | 0.00 | 0.00 | 0.00 | 60 | 1009.6 |
| 20260508023935 | 13 | 18 | 0.0 | 0.0 | 0.00 | 0.00 | 0.00 | 59 | 1009.7 |
| 20260508023432 | 13 | 18 | 1.6 | 1.6 | 0.00 | 0.00 | 0.00 | 58 | 1009.6 |
| 20260508022929 | 14 | 17 | 0.0 | 1.6 | 0.00 | 0.00 | 0.00 | 57 | 1009.6 |
| 20260508022425 | 14 | 19 | 0.0 | 1.6 | 0.00 | 0.00 | 0.00 | 56 | 1009.4 |
| 20260508021922 | 14 | 16 | 1.6 | 1.6 | 0.00 | 0.00 | 0.00 | 56 | 1009.3 |
| 20260508021418 | 14 | 17 | 1.6 | 3.2 | 0.00 | 0.00 | 0.00 | 56 | 1009.2 |
| 20260508020914 | 15 | 17 | 0.0 | 3.2 | 0.00 | 0.00 | 0.00 | 55 | 1009.2 |
| 20260508020412 | 14 | 1 | 0.0 | 1.6 | 0.00 | 0.00 | 0.00 | 56 | 1009.0 |
| 20260508015909 | 14 | 1 | 0.0 | 0.0 | 0.00 | 0.00 | 0.00 | 57 | 1009.0 |
| 20260508015407 | 15 | 1 | 0.0 | 0.0 | 0.00 | 0.00 | 0.00 | 58 | 1008.9 |
| 20260508014903 | 15 | 2 | 0.0 | 1.6 | 0.00 | 0.00 | 0.00 | 57 | 1008.7 |
| 20260508014400 | 15 | 7 | 0.0 | 0.0 | 0.00 | 0.00 | 0.00 | 56 | 1008.9 |
| 20260508013855 | 15 | 7 | 0.0 | 0.0 | 0.00 | 0.00 | 0.00 | 54 | 1008.7 |
| 20260508013352 | 15 | 8 | 1.6 | 3.2 | 0.00 | 0.00 | 0.00 | 53 | 1008.6 |
| 20260508012849 | 16 | 9 | 1.6 | 4.8 | 0.00 | 0.00 | 0.00 | 52 | 1008.5 |
| 20260508012346 | 16 | 5 | 4.8 | 4.8 | 0.00 | 0.00 | 0.00 | 51 | 1008.6 |
| 20260508011844 | 16 | 355 | 1.6 | 1.6 | 0.00 | 0.00 | 0.00 | 51 | 1008.6 |
| 20260508011342 | 16 | 27 | 3.2 | 11.3 | 0.00 | 0.00 | 0.00 | 49 | 1008.6 |
| 20260508010839 | 16 | 1 | 3.2 | 4.8 | 0.00 | 0.00 | 0.00 | 49 | 1008.4 |
| 20260508010336 | 17 | 359 | 1.6 | 4.8 | 0.00 | 0.00 | 0.00 | 49 | 1008.3 |
| 20260508005833 | 17 | 347 | 0.0 | 4.8 | 0.00 | 0.00 | 0.00 | 51 | 1008.3 |
| 20260508005330 | 17 | 337 | 0.0 | 1.6 | 0.00 | 0.00 | 0.00 | 49 | 1008.3 |
| 20260508004826 | 17 | 357 | 3.2 | 3.2 | 0.00 | 0.00 | 0.00 | 49 | 1008.2 |
| 20260508004322 | 17 | 7 | 4.8 | 12.9 | 0.00 | 0.00 | 0.00 | 48 | 1008.3 |
| 20260508003819 | 18 | 13 | 4.8 | 11.3 | 0.00 | 0.00 | 0.00 | 46 | 1008.0 |
| 20260508003316 | 18 | 29 | 4.8 | 11.3 | 0.00 | 0.00 | 0.00 | 46 | 1008.1 |
| 20260508002813 | 18 | 344 | 3.2 | 4.8 | 0.00 | 0.00 | 0.00 | 46 | 1008.0 |
| 20260508002309 | 18 | 9 | 1.6 | 4.8 | 0.00 | 0.00 | 0.00 | 44 | 1007.9 |
| 20260508001806 | 20 | 343 | 6.4 | 8.0 | 0.00 | 0.00 | 0.00 | 40 | 1007.8 |
| 20260508001301 | 20 | 283 | 0.0 | 0.0 | 0.00 | 0.00 | 0.00 | 41 | 1007.8 |
| 20260508000758 | 20 | 283 | 0.0 | 1.6 | 0.00 | 0.00 | 0.00 | 41 | 1007.7 |
| 20260508000257 | 20 | 271 | 0.0 | 1.6 | 0.00 | 0.00 | 0.00 | 40 | 1007.8 |
| 20260507235751 | 20 | 266 | 1.6 | 4.8 | 0.00 | 0.00 | 0.00 | 38 | 1007.8 |
| 20260507235249 | 20 | 272 | 0.0 | 3.2 | 0.00 | 0.00 | 0.00 | 38 | 1007.8 |
| 20260507234745 | 20 | 249 | 3.2 | 8.0 | 0.00 | 0.00 | 0.00 | 38 | 1007.8 |
| 20260507234242 | 20 | 242 | 3.2 | 3.2 | 0.00 | 0.00 | 0.00 | 40 | 1007.8 |
| 20260507233738 | 20 | 248 | 3.2 | 4.8 | 0.00 | 0.00 | 0.00 | 39 | 1008.0 |